Regional Weather Roundup
Issued by NWS

Home | Current Version | Previous Version | Graphics & Text | Print | Product List | Glossary On
Versions: 1 2 3 4 5 6 7 8 9 10 11 12 13 14 15 16 17 18 19 20 21 22 23 24 25 26 27 28 29 30 31 32 33 34 35 36 37 38 39 40 41 42 43 44 45 46 47 48 49 50
000
ASUS43 KLOT 031300
RWRIL

ILLINOIS REGIONAL WEATHER ROUNDUP
NATIONAL WEATHER SERVICE CHICAGO/ROMEOVILLE IL
700 AM CST TUE MAR 03 2015

NOTE: "FAIR" INDICATES FEW OR NO CLOUDS BELOW 12,000 FEET WITH NO
SIGNIFICANT WEATHER AND/OR OBSTRUCTIONS TO VISIBILITY.

* THESE STATIONS ARE NOT UNDER NWS QUALITY CONTROL. THEY ALSO MAY NOT
  REPORT WEATHER SUCH AS PRECIPITATION OR FOG.

ILZ001-002-007-009-015-016-024-031400-
NORTHWEST ILLINOIS

CITY           SKY/WX    TMP DP  RH WIND       PRES   REMARKS
MOLINE         FRZ RAIN  29  26  89 S15G25    29.77F FOG     WCI  18
STERLING*      CLOUDY    30  27  86 S7        29.85R WCI  23
$$

ILZ003-004-008-010-011-017-018-031400-
NORTH CENTRAL ILLINOIS

CITY           SKY/WX    TMP DP  RH WIND       PRES   REMARKS
ROCKFORD       FRZ RAIN  29  25  85 S20       29.84F FOG     WCI  16
$$

ILZ005-006-012>014-019>023-031400-
NORTHEAST ILLINOIS

CITY           SKY/WX    TMP DP  RH WIND       PRES   REMARKS
CHICAGO-OHARE  FRZ DRZL  25  23  92 SE14      29.89F FOG     WCI  13
CHICAGO-MIDWAY FRZ DRZL  28  24  85 SE14      29.91F FOG     WCI  17
AURORA         CLOUDY    28  24  85 SE17      29.89F FOG     WCI  16
WAUKEGAN       LGT SNOW  26  25  96 SE17      29.87F FOG     WCI  13
DUPAGE AIRPORT FRZ RAIN  27  24  89 S14       29.88F FOG     WCI  16
WHEELING       FRZ RAIN  27  24  89 S13       29.91F FOG     WCI  16
NORTHERLY ISL    N/A     27  24  89 SE15        N/A  WCI  15
$$

LMZ740>746-031400-
SOUTHERN LAKE MICHIGAN

STATION/POSITION SKY/WX   TEMP    WIND        PRES    VSBY  WAVE
                          AIR SEA DIR/SP/G                  HT/PER
                          (F)     (DEG/KT/KT) (MB)    (MI)  (FT/S)
WAUKEGAN HARBOR            27        CALM       N/A
HARRISON CRIB              26     150/ 20/ 24   N/A
BURNHAM HARBOR             27     140/ 16/ 16   N/A
CALUMET HARBOR             26                 1012.6F
MICHIGAN CITY              24     110/ 10/ 14   N/A
$$

ILZ025>027-034>036-040-047-049-050-058-095>099-031400-
WEST-CENTRAL ILLINOIS

CITY           SKY/WX    TMP DP  RH WIND       PRES   REMARKS
QUINCY         CLOUDY    30  27  88 S12       29.80F FOG     WCI  20
$$

ILZ028>032-037-038-041>044-048-051>054-059>061-031400-
CENTRAL ILLINOIS

CITY           SKY/WX    TMP DP  RH WIND       PRES   REMARKS
DECATUR        FRZ RAIN  30  27  88 SE14      29.89F FOG     WCI  19
PEORIA         CLOUDY    30  26  85 S15       29.87F FOG     WCI  19
SPRINGFIELD    FRZ RAIN  31  26  82 S15       29.88F WCI  20
TAYLORVILLE    NOT AVBL
$$

ILZ033-039-045-046-055>057-062-063-031400-
EAST-CENTRAL ILLINOIS

CITY           SKY/WX    TMP DP  RH WIND       PRES   REMARKS
CHAMPAIGN      CLOUDY    28  24  85 SE18      29.92F FOG     WCI  15
MATTOON        FRZ RAIN  30  26  85 SE16      29.93F FOG     WCI  19
$$

ILZ079-100>102-031400-
SOUTHWEST ILLINOIS

CITY           SKY/WX    TMP DP  RH WIND       PRES   REMARKS
ALTON          DRIZZLE   32  28  86 S13       29.89F FOG     WCI  22
BELLEVILLE     CLOUDY    34  32  91 VRB7      29.90F WCI  28
CAHOKIA*       CLOUDY    35  28  75 S8        29.91F FOG     WCI  29
$$

ILZ064>066-069>071-074>076-080>082-084>086-088>090-092>094-031400-
SOUTH-CENTRAL ILLINOIS

CITY           SKY/WX    TMP DP  RH WIND       PRES   REMARKS
CARBONDALE     CLOUDY    37  32  82 S16       29.99F WCI  28
MARION         CLOUDY    39  36  87 S17       29.99F WCI  30
MT. VERNON     CLOUDY    36  28  75 S10       29.96F WCI  28
$$

ILZ067-068-072-073-078-083-087-091-031400-
SOUTHEAST ILLINOIS

CITY           SKY/WX    TMP DP  RH WIND       PRES   REMARKS
LAWRENCEVILLE  CLOUDY    34  27  75 SE12      30.00F HAZE    WCI  25
$$

ABBREVIATIONS USED IN REMARKS
   TC - TEMPERATURE IN CELSIUS
  WCI - WIND CHILL INDEX
   HX - HEAT INDEX
  VSB - VISIBILITY
$$




USA.gov is the U.S. government's official web portal to all federal, state and local government web resources and services.